Volver al catálogo

NOAA 16 DEB

ActivoSSO
NORAD 41228·DEBRIS·🇺🇸 United States

Lanzado Sep 21, 2000 desde Vandenberg Space Force Base

Loading…

Próximos Pases (próximas 24 horas)

TLE

ActualizadoSource: Space-Track

Época: Sep 14, 2026, 04:38 UTC

1 41228U 00055EH  26257.19346303  .00002876  00000-0  10853-2 0  9990
2 41228  98.7204 342.8188 0019513 126.3330 233.9658 14.32038186555704

Sigue NOAA 16 DEB en tiempo real con AllMySat

Download on the App Store